Погода Большой Шантар

Погода Большой Шантар : погода сейчас, прогноз погоды и архив. Всё, что Вы хотите узнать о погоде Большой Шантар!

Хотите узнать прогноз погоды Большой Шантар? Тогда Вам сюда: Погода Большой Шантар

Поиск расширенной информации на нашем сайте:

Другие новости

Новости СМИ2

Главная страница сайта

Новости сайта

03.07.2017

Напоминаем, что на нашем специализированном сайте Метеоцентр.Азия вы можете получить высокодетализированные автоматические прогнозы погоды по пунктам России, СНГ и мира в авиационном формате (включающие направление и скорость ветра, видимость, явления погоды, количество и форму облачности, нижнюю и верхнюю границу облачности).

Рекомендуем: мобильные электрокардиографы

Погода Большой Шантар - сегодня

Время (UTC), дата Ветер
(°,м/с) 
Видим.   Явления Облачность Т
(°С)
Тd
(°С)
f(%) Тe
(°С)
Pmin
(гПа)
dP
(гПа)
Po
(мм)
O2
(г/м3)
Тmin Tmax R s Состояние
почвы
15 09.12.17 030 (СВ) 2{12}  10 км  слаб. ливневой снег  10/10 600 м кучево-дожд. 
[Cb cap]
-9 -10.1 92 -11  1011.9  0.8  758  317           
18 09.12.17 350 (С) 6-11{12}  10 км  слаб. ливневой снег  10/10 600 м кучево-дожд. 
[Cb cap]
-10.8 -12.1 90 -16  1013.6  1.8  759  320           
21 09.12.17 020 (С) 4{12}  20000 м  позёмок{ливн. осадки}  9/9 600 м кучево-дожд. 
[Cb cap]
-12.7 -14.7 85 -17  1016.2  2.5  761  323  -12.7    13  равномерный
сухой снег
100% 
00 10.12.17 020 (С) 3{11}  20000 м  {ливн. осадки}  8/8 600 м 
[Sc]
-13.2 -16.6 76 -17  1018.4  2.2  763  324  -13.5         
03 10.12.17 320 (СЗ) 6-10{12}  20000 м    5/0 средняя, верхняя 
[Ac trans|Ci fib]
-13.7 -18 70 -20  1019.5  1.1  764  325           
06 10.12.17 360 (С) 7{11}  20000 м    3/0 средняя, верхняя 
[Ac trans|Ci fib]
-14.5 -19.3 67 -21  1020.2  0.7  764  327           
09 10.12.17 360 (С) 5{11}  20000 м    3/3 600 м 
[Sc]
-15.1 -19.1 71 -21  1021.5  0.7  765  328    -12.7       
12 10.12.17 010 (С) 3{10}  20000 м  позёмок  ясно 
-15.4 -19 74 -19  1022.4  0.9  766  329           
15 10.12.17 080 (В) 20000 м    3/0 верхняя 
[Ci fib]
-16.3 -19.3 78 -19  1023.1  0.7  766  330           
18 10.12.17 030 (СВ) 20000 м    6/1 600 м верхняя 
[Sc|Ci fib]
-16.5 -20.1 74 -20  1023.8  0.6  767  330           
21 10.12.17 030 (СВ) 20000 м    8/3 600 м верхняя 
[Sc|Ci fib]
-17.8 -21.3 74 -22  1024.4  0.6  767  332  -18.8      14  равномерный
сухой снег
100% 
00 11.12.17 350 (С) 6-10{11}  20000 м    10/0 средняя 
[As op]
-17.1 -20.1 77 -24  1025.1  0.8  768  332           
03 11.12.17 010 (С) 5{13}  20000 м  слаб. снег  10/0 средняя 
[As op]
-17.4 -20.5 77 -23  1025.5  0.3  768  332           
06 11.12.17 010 (С) 6{11}  20000 м  позёмок{снег}  8/3 600 м средняя, верхняя 
[Sc|Ac As|Cc]
-18.1 -21.6 74 -25  1025.3  -0.2  768  333           
09 11.12.17 360 (С) 5{11}  20000 м  позёмок  3/3 600 м верхняя 
[Sc|Cc]
-18.3 -20.9 80 -24  1024.9  -0.3  768  333    -16.7       
12 11.12.17 010 (С) 5{10}  20000 м  позёмок  3/3 600 м 
[Sc]
-18.2 -20.7 81 -24  1023.7  -1.2  767  333           
15 11.12.17 010 (С) 5{12}  20000 м  позёмок  10/10 600 м 
[Sc]
-17.2 -19.6 82 -23  1021.3  -2.3  765  331           
18 11.12.17 010 (С) 5{12}  10 км  слаб. ливневой снег  10/10 600 м кучево-дожд. 
[Cb cap]
-16.9 -19.2 82 -23  1020.3  -1  764  330           
21 11.12.17 030 (СВ) 3{13}  10 км  слаб. ливневой снег  10/10 600 м кучево-дожд. 
[Cb cap]
-16.1 -18.2 84 -20  1019  -1.3  763  328  -18.6    0.3  15  равномерный
сухой снег
100% 
00 12.12.17 350 (С) 3{13}  10 км  слаб. ливневой снег  10/10 300 м кучево-дожд. 
[Cb cap]
-15.9 -17.9 85 -20  1019.2  0.2  764  328           
03 12.12.17 020 (С) 6{13}  10 км  слаб. ливневой снег  10/10 300 м кучево-дожд. 
[Cb cap]
-15 -17 85 -21  1016.6  -2.6  762  326           
06 12.12.17 020 (С) 7-12{12}  10 км  слаб. ливневой снег  10/10 300 м кучево-дожд. 
[Cb cap]
-14.2 -16.1 85 -21  1017.2  0.6  762  325           
09 12.12.17 020 (С) 7-11{14}  10 км  слаб. ливневой снег  10/10 300 м кучево-дожд. 
[Cb cap]
-13.2 -15.2 85 -20  1018.8  1.5  763  324    -13.2  0.8     
12 12.12.17 360 (С) 6-11{13}  10 км  слаб. ливневой снег  10/10 300 м кучево-дожд. 
[Cb cap]
-13.2 -15.1 86 -19  1019.8  764  325           
15 12.12.17 010 (С) 5{12}  10 км  слаб. ливневой снег  10/10 300 м кучево-дожд. 
[Cb cap]
-12.1 -13.9 86 -17  1020.7  0.9  765  324           
Время (UTC), дата Ветер
(°,м/с) 
Видим.   Явления Облачность Т
(°С)
Тd
(°С)
f(%) Тe
(°С)
Pmin
(гПа)
dP
(гПа)
Po
(мм)
O2
(г/м3)
Тmin Tmax R s Состояние
почвы

Для получения пояснительной информации подведите курсор к названию столбца.

ПОГОДА Большой Шантар - архив

Всё, что Вы хотите узнать о погоде Большой Шантар - удобно и подробно!

Выберите нужную дату (начиная с 1 января 2015* года) и нажмите кнопку "Найти".
Будут отображены архивные сводки погоды по пункту Большой Шантар, начиная с указанной даты.


Отображать данные в формате CSV (для использования в таблицах Excel)


Внимание! Наш архив погоды предназначен исключительно для личного некоммерческого использования в познавательных целях. Если Вам необходимы официальные справки о состоянии погоды (для производственных, юридических, коммерческих и т.п. целей), обращайтесь в органы Росгидромета.

*Примечание: данная дата относится к архиву по метеостанциям СССР (Россия, СНГ, Балтия).
Архив по метеостанциям Зарубежной Европы и Азии (кроме Китая) хранится 10 дней, по другим регионам земного шара (Китай, Африка, Америка, Австралия, Океания) - 1 день.

Большой Шантар - район местоположения метеостанции


Название, широта, долгота, высота метеостанции:
Большой Шантар 54.8°ш. 137.5°д. 21 м над ур. моря [Российская Федерация]

Дополнительная информация

В oтличие oт бoльшинства пoгoдных сайтoв мы публикуем пoдрoбную метеoинфoрмацию в детальнoм прoфессиoнальнoм фoрмате.

Характеристики температуры и влажнoсти вoздуха измеряются на высoте 2 м в тени вдали oт зданий и деревьев.
Скoрoсть ветра измеряется на высoте 10 м (на урoвне рoста челoвека скoрoсть ветра ниже в 1.5-2 раза). Если метеoстанция нахoдится в гoрoде или в лесу, тo скoрoсть ветра занижена на 2-4 м/с пo сравнению с oткрытым местoм. Скoрoсть ветра над акватoриями крупных рек и oзёр, а также на вершинах хoлмoв на 2-5 м/с выше, чем в oбычных услoвиях.
Атмoсфернoе давление в разных тoчках местнoсти мoжет значительнo oтличаться oт давления на метеoстанции, в зависимoсти oт услoвий рельефа (при пoдъёме на 10 м давление пoнижается примернo на 1 мм рт.ст.).